Location: Brahman Valley
(40.6513°N, 111.8855°W)
Time: 09:24:27
(UTC+00:00)

Tiros 1 despin weight - Pass Details

Date: 14 May 2021
Orbit: 594 x 641 km, 48.2° (Epoch: 22 June)

Event Time Altitude Azimuth Distance (km) Brightness Sun altitude
Rises 06:30:21 0° 290° (WNW) 2,940 ? -29.4°
Reaches altitude 10° 06:32:53 10° 300° (WNW) 2,032 ? -29.5°
Maximum altitude 06:37:08 33° 5° (N) 1,084 ? -29.7°
Enters shadow 06:39:05 24° 48° (NE) 1,342 ? -29.7°
Drops below altitude 10° 06:41:22 10° 70° (ENE) 2,027 - -29.8°
Sets 06:43:53 0° 80° (E) 2,932 - -29.9°
